Location: Pasarilla del Rebollar
(40.6790°N, 5.0062°W)
Time: 11:04:40
(UTC+00:00)

Cosmos 2333 Rocket - Pass Details

Date: 22 April 2026
Orbit: 842 x 860 km, 70.8° (Epoch: 15 May)

Event Time Altitude Azimuth Distance (km) Brightness Sun altitude
Rises 04:15:49 0° 314° (NW) 3,411 5.2 -13.9°
Reaches altitude 10° 04:19:47 10° 287° (WNW) 2,473 4.2 -13.3°
Enters shadow 04:20:54 12° 276° (W) 2,340 4.0 -13.1°
